Location: Ariel
(45.9570°N, 122.5700°W)
Time: 06:50:56
(UTC-08:00)

Transit 4A - Pass Details

Date: 06 November 2020
Orbit: 862 x 982 km, 66.8° (Epoch: 03 December)

Event Time Altitude Azimuth Distance (km) Brightness Sun altitude
Rises 19:11:30 0° 326° (NW) 3,694 11.5 -25.1°
Reaches altitude 10° 19:15:14 10° 347° (NNW) 2,745 10.5 -25.7°
Enters shadow 19:18:39 16° 19° (NNE) 2,310 9.8 -26.3°
